User: anonymous   Login
Location: Sabalos
(43.2860°N, 0.1414°E)
Time: 12:22:15
(UTC+00:00)
Language:

Cosmos 1869 - Orbit

View from above orbital plane
View from above orbital plane
View from above satellite
View from above satellite

Ground track
Ground track

The orbit data is extracted from the following two-line orbital elements,

1 18214U 87062A   20274.34208082 +.00000428 +00000-0 +25148-4 0  9999
2 18214 082.5053 001.8723 0037057 100.9682 259.5719 15.08331612788292
Epoch (UTC): 30 September 2020 08:12:35
Eccentricity: 0.0037057
inclination: 82.5053°
perigee height: 515 km
apogee height: 567 km
right ascension of ascending node: 1.8723°
argument of perigee: 100.9682°
revolutions per day: 15.08331612
mean anomaly at epoch: 259.5719°
orbit number at epoch: 78829

The dashed part of the orbit path shows where the satellite is in the earth's shadow,  

DLR